• In Russia
  • List of Countries
  • For 7 days
  • Water Temperature
  • Weather Map
  • Weather Widgets
  • user-avatar
    Login

    Hourly Weather Salvador

    Today, 28 May, Thursday

    Time Temperature Precipitation Wind Pressure Humidity
    00:00 +27°C° 0.5 mm 4 mps 756 mmHg 89%
    01:00 +27°C° 0.3 mm 5 mps 756 mmHg 89%
    02:00 +27°C° 0.3 mm 5 mps 756 mmHg 89%
    03:00 +27°C° 0.3 mm 6 mps 756 mmHg 89%
    04:00 +26°C° 0.5 mm 6 mps 756 mmHg 89%
    05:00 +26°C° 0.5 mm 7 mps 757 mmHg 89%
    06:00 +26°C° 0.5 mm 7 mps 757 mmHg 89%
    07:00 +26°C° 0.3 mm 8 mps 757 mmHg 87%
    08:00 +27°C° 0.3 mm 8 mps 758 mmHg 85%
    09:00 +27°C° 0.3 mm 9 mps 759 mmHg 83%
    10:00 +27°C° 0.1 mm 9 mps 758 mmHg 81%
    11:00 +27°C° 0.1 mm 9 mps 758 mmHg 79%
    12:00 +27°C° 0.1 mm 9 mps 758 mmHg 77%
    13:00 +27°C° 0.1 mm 9 mps 758 mmHg 76%
    14:00 +27°C° 0.1 mm 9 mps 757 mmHg 75%
    15:00 +27°C° 0.1 mm 9 mps 757 mmHg 73%
    16:00 +27°C° 0 mm 8 mps 757 mmHg 74%
    17:00 +26°C° 0 mm 8 mps 757 mmHg 75%
    18:00 +26°C° 0 mm 7 mps 758 mmHg 76%
    19:00 +26°C° 0.1 mm 7 mps 758 mmHg 77%
    20:00 +26°C° 0.1 mm 8 mps 759 mmHg 78%
    21:00 +26°C° 0.1 mm 8 mps 759 mmHg 79%
    22:00 +26°C° 0.1 mm 8 mps 759 mmHg 79%
    23:00 +26°C° 0.1 mm 8 mps 759 mmHg 79%

    Tomorrow, 29 May, Friday

    Time Temperature Precipitation Wind Pressure Humidity
    00:00 +26°C° 0.1 mm 8 mps 759 mmHg 78%
    01:00 +24°C° 0 mm 8 mps 758 mmHg 77%
    02:00 +24°C° 0 mm 8 mps 758 mmHg 75%
    03:00 +24°C° 0 mm 8 mps 758 mmHg 73%
    04:00 +24°C° 0 mm 7 mps 758 mmHg 75%
    05:00 +24°C° 0 mm 7 mps 758 mmHg 78%
    06:00 +24°C° 0 mm 7 mps 758 mmHg 80%
    07:00 +24°C° 0.1 mm 7 mps 759 mmHg 79%
    08:00 +24°C° 0.1 mm 6 mps 759 mmHg 78%
    09:00 +24°C° 0.1 mm 6 mps 759 mmHg 77%
    10:00 +26°C° 0.2 mm 6 mps 759 mmHg 75%
    11:00 +27°C° 0.2 mm 6 mps 759 mmHg 72%
    12:00 +28°C° 0.2 mm 7 mps 758 mmHg 70%
    13:00 +27°C° 0.2 mm 6 mps 758 mmHg 72%
    14:00 +27°C° 0.2 mm 6 mps 758 mmHg 74%
    15:00 +27°C° 0.2 mm 6 mps 757 mmHg 76%
    16:00 +27°C° 0.1 mm 6 mps 757 mmHg 77%
    17:00 +26°C° 0.1 mm 7 mps 758 mmHg 79%
    18:00 +24°C° 0.1 mm 7 mps 758 mmHg 80%
    19:00 +24°C° 0 mm 7 mps 758 mmHg 79%
    20:00 +24°C° 0 mm 7 mps 759 mmHg 79%
    21:00 +24°C° 0 mm 7 mps 759 mmHg 78%
    22:00 +24°C° 0 mm 6 mps 759 mmHg 78%
    23:00 +25°C° 0 mm 5 mps 759 mmHg 78%

    Day after tomorrow, 30 May, Saturday

    Time Temperature Precipitation Wind Pressure Humidity
    00:00 +25°C° 0 mm 5 mps 759 mmHg 78%
    01:00 +23°C° 0 mm 5 mps 758 mmHg 82%
    02:00 +23°C° 0 mm 4 mps 758 mmHg 85%
    03:00 +22°C° 0 mm 4 mps 757 mmHg 89%
    04:00 +22°C° 0.2 mm 4 mps 758 mmHg 89%
    05:00 +22°C° 0.2 mm 4 mps 758 mmHg 90%
    06:00 +22°C° 0.2 mm 4 mps 758 mmHg 90%
    07:00 +23°C° 0.4 mm 4 mps 758 mmHg 89%
    08:00 +23°C° 0.4 mm 5 mps 758 mmHg 87%
    09:00 +25°C° 0.4 mm 5 mps 759 mmHg 86%
    10:00 +26°C° 0.4 mm 5 mps 759 mmHg 85%
    11:00 +26°C° 0.4 mm 6 mps 758 mmHg 84%
    12:00 +27°C° 0.4 mm 6 mps 758 mmHg 82%
    13:00 +27°C° 0.4 mm 6 mps 758 mmHg 83%
    14:00 +26°C° 0.4 mm 6 mps 757 mmHg 84%
    15:00 +26°C° 0.4 mm 6 mps 757 mmHg 85%
    16:00 +26°C° 0.2 mm 6 mps 757 mmHg 85%
    17:00 +26°C° 0.2 mm 6 mps 757 mmHg 85%
    18:00 +24°C° 0.2 mm 6 mps 757 mmHg 85%
    19:00 +24°C° 0 mm 6 mps 758 mmHg 84%
    20:00 +24°C° 0 mm 6 mps 758 mmHg 83%
    21:00 +24°C° 0 mm 6 mps 758 mmHg 83%
    22:00 +24°C° 0.1 mm 6 mps 758 mmHg 83%
    23:00 +25°C° 0.1 mm 5 mps 758 mmHg 84%

    31 May, Sunday

    Time Temperature Precipitation Wind Pressure Humidity
    00:00 +25°C° 0.1 mm 5 mps 758 mmHg 84%
    01:00 +25°C° 0.1 mm 5 mps 757 mmHg 85%
    02:00 +25°C° 0.1 mm 5 mps 757 mmHg 86%
    03:00 +25°C° 0.1 mm 5 mps 757 mmHg 86%
    04:00 +25°C° 0.3 mm 5 mps 757 mmHg 87%
    05:00 +25°C° 0.3 mm 5 mps 757 mmHg 87%
    06:00 +25°C° 0.3 mm 5 mps 757 mmHg 87%
    07:00 +25°C° 0.2 mm 5 mps 758 mmHg 87%
    08:00 +25°C° 0.2 mm 5 mps 758 mmHg 86%
    09:00 +25°C° 0.2 mm 5 mps 759 mmHg 85%
    10:00 +26°C° 0.1 mm 5 mps 758 mmHg 84%
    11:00 +26°C° 0.1 mm 5 mps 758 mmHg 83%
    12:00 +26°C° 0.1 mm 5 mps 758 mmHg 82%
    13:00 +27°C° 0.1 mm 5 mps 758 mmHg 80%
    14:00 +27°C° 0.1 mm 5 mps 757 mmHg 77%
    15:00 +27°C° 0.1 mm 5 mps 757 mmHg 75%
    16:00 +27°C° 0 mm 5 mps 757 mmHg 76%
    17:00 +26°C° 0 mm 5 mps 757 mmHg 76%
    18:00 +26°C° 0 mm 5 mps 757 mmHg 77%
    19:00 +26°C° 0 mm 5 mps 758 mmHg 78%
    20:00 +26°C° 0 mm 5 mps 758 mmHg 80%
    21:00 +26°C° 0 mm 5 mps 758 mmHg 81%
    22:00 +26°C° 0.1 mm 5 mps 758 mmHg 82%
    23:00 +26°C° 0.1 mm 5 mps 758 mmHg 84%

    1 June, Monday

    Time Temperature Precipitation Wind Pressure Humidity
    00:00 +26°C° 0.1 mm 5 mps 758 mmHg 85%
    01:00 +25°C° 0.2 mm 4 mps 757 mmHg 86%
    02:00 +25°C° 0.2 mm 4 mps 757 mmHg 86%
    03:00 +25°C° 0.2 mm 4 mps 757 mmHg 87%
    04:00 +25°C° 0.3 mm 4 mps 757 mmHg 88%
    05:00 +24°C° 0.3 mm 3 mps 757 mmHg 89%
    06:00 +24°C° 0.3 mm 3 mps 757 mmHg 90%
    07:00 +25°C° 0.7 mm 3 mps 758 mmHg 88%
    08:00 +25°C° 0.7 mm 4 mps 758 mmHg 86%
    09:00 +26°C° 0.7 mm 4 mps 758 mmHg 84%
    10:00 +26°C° 0.4 mm 4 mps 758 mmHg 83%
    11:00 +27°C° 0.4 mm 4 mps 758 mmHg 81%
    12:00 +27°C° 0.4 mm 4 mps 757 mmHg 79%
    13:00 +28°C° 0.1 mm 4 mps 757 mmHg 78%
    14:00 +28°C° 0.1 mm 4 mps 757 mmHg 76%
    15:00 +28°C° 0.1 mm 4 mps 756 mmHg 75%
    16:00 +27°C° 0.1 mm 5 mps 756 mmHg 79%
    17:00 +27°C° 0.1 mm 5 mps 757 mmHg 83%
    18:00 +26°C° 0.1 mm 5 mps 757 mmHg 86%
    19:00 +26°C° 0.4 mm 5 mps 757 mmHg 87%
    20:00 +26°C° 0.4 mm 5 mps 758 mmHg 88%
    21:00 +26°C° 0.4 mm 5 mps 758 mmHg 88%
    22:00 +26°C° 0.3 mm 5 mps 758 mmHg 88%
    23:00 +26°C° 0.3 mm 5 mps 758 mmHg 88%

    2 June, Tuesday

    Time Temperature Precipitation Wind Pressure Humidity
    00:00 +26°C° 0.3 mm 5 mps 758 mmHg 89%
    01:00 +26°C° 0.3 mm 5 mps 757 mmHg 88%
    02:00 +26°C° 0.3 mm 5 mps 757 mmHg 88%
    03:00 +26°C° 0.3 mm 5 mps 757 mmHg 88%
    04:00 +26°C° 0.2 mm 5 mps 757 mmHg 88%
    05:00 +26°C° 0.2 mm 5 mps 757 mmHg 87%
    06:00 +26°C° 0.2 mm 4 mps 757 mmHg 87%
    07:00 +26°C° 0.2 mm 4 mps 758 mmHg 87%
    08:00 +26°C° 0.2 mm 4 mps 758 mmHg 86%
    09:00 +27°C° 0.2 mm 4 mps 759 mmHg 85%
    10:00 +27°C° 0.1 mm 4 mps 758 mmHg 82%
    11:00 +28°C° 0.1 mm 4 mps 758 mmHg 78%
    12:00 +28°C° 0.1 mm 4 mps 757 mmHg 75%
    13:00 +28°C° 0 mm 4 mps 757 mmHg 74%
    14:00 +28°C° 0 mm 4 mps 757 mmHg 72%
    15:00 +28°C° 0 mm 4 mps 756 mmHg 71%
    16:00 +28°C° 0 mm 4 mps 757 mmHg 74%
    17:00 +27°C° 0 mm 4 mps 757 mmHg 78%
    18:00 +27°C° 0 mm 4 mps 757 mmHg 81%
    19:00 +26°C° 0 mm 4 mps 757 mmHg 82%
    20:00 +26°C° 0 mm 3 mps 758 mmHg 83%
    21:00 +26°C° 0 mm 3 mps 758 mmHg 83%
    22:00 +26°C° 0 mm 3 mps 758 mmHg 84%
    23:00 +26°C° 0 mm 3 mps 758 mmHg 84%
    Show more